CAPE
nan nan nan nan nan nan nan nan nan nan nan nan nan nan nan nan nan nan nan nan nan nan nan nan nan nan nan nan nan nan nan nan nan nan 0 1 3 3 5 9 9 13 17 20 20 22 25 29 29 33 38 41 44 44 47 56 56 64 71 76 76 84 94 98 98 106 113 122 125 125 127 120 117 117 109 100 96 96 100 103 103 104 104 103 103 101
nan nan nan nan nan nan nan nan nan nan nan nan nan nan nan nan nan nan nan nan nan nan nan nan nan nan nan nan nan nan nan nan nan nan nan 1 3 3 6 10 10 14 17 20 20 21 23 25 25 29 36 41 42 42 45 53 53 56 66 70 70 76 81 87 87 96 102 109 106 106 105 103 95 95 87 85 87 87 93 99 99 101 105 106 106 108
nan nan nan nan nan nan nan nan nan nan nan nan nan nan nan nan nan nan nan nan nan nan nan nan nan nan nan nan nan nan nan nan nan nan nan 0 4 4 7 11 11 13 16 19 19 20 21 24 24 28 34 39 40 40 45 48 48 52 59 60 60 68 71 77 77 82 86 87 86 86 82 78 72 72 72 79 87 87 95 100 100 101 103 102 102 106
nan nan nan nan nan nan nan nan nan nan nan nan nan nan nan nan nan nan nan nan nan nan nan nan nan nan nan nan nan nan nan nan nan nan nan 0 3 3 5 8 8 11 14 17 17 19 21 24 24 28 33 38 38 38 43 46 46 50 54 56 56 62 63 66 66 68 67 66 63 63 63 61 65 65 67 77 88 88 94 94 94 93 93 96 96 103
nan nan nan nan nan nan nan nan nan nan nan nan nan nan nan nan nan nan nan nan nan nan nan nan nan nan nan nan nan nan nan nan nan nan nan 0 1 1 3 5 5 8 11 14 14 18 22 24 24 28 33 36 37 37 38 41 41 47 48 52 52 56 60 59 59 58 55 55 52 52 52 56 61 61 65 72 80 80 80 83 83 85 88 91 91 98
nan nan nan nan nan nan nan nan nan nan nan nan nan nan nan nan nan nan nan nan nan nan nan nan nan nan nan nan nan nan nan nan nan nan nan 0 1 1 2 3 3 6 8 11 11 14 17 20 20 26 31 34 34 34 37 39 39 42 46 46 46 49 50 49 49 50 50 50 51 51 51 54 57 57 61 65 69 69 73 81 81 81 88 89 89 98
nan nan nan nan nan nan nan nan nan nan nan nan nan nan nan nan nan nan nan nan nan nan nan nan nan nan nan nan nan nan nan nan nan nan nan nan 0 0 1 2 2 4 6 8 8 10 13 16 16 19 27 31 33 33 32 34 34 36 39 39 39 42 44 44 44 45 44 46 47 47 47 49 50 50 53 57 61 61 69 74 74 76 82 91 91 101
nan nan nan nan nan nan nan nan nan nan nan nan nan nan nan nan nan nan nan nan nan nan nan nan nan nan nan nan nan nan nan nan nan nan nan nan nan nan 0 2 2 3 5 6 6 8 9 13 13 16 19 22 22 22 22 21 21 20 22 22 22 24 27 29 29 32 33 32 35 35 34 36 37 37 39 40 45 45 50 58 58 72 86 102 102 113
nan nan nan nan nan nan nan nan nan nan nan nan nan nan nan nan nan nan nan nan nan nan nan nan nan nan nan nan nan nan nan nan nan nan nan nan nan nan 0 2 2 4 5 6 6 7 9 10 10 13 14 14 15 15 14 13 13 13 16 16 16 19 21 25 25 27 28 28 30 30 31 31 30 30 35 40 44 44 48 55 55 73 96 116 116 128
nan nan nan nan nan nan nan nan nan nan 0 nan nan nan nan nan nan nan nan nan nan nan nan nan nan nan nan nan nan nan nan nan 0 0 2 1 5 5 3 2 2 1 5 6 6 7 5 6 6 7 7 7 7 7 8 8 8 9 10 12 12 13 15 17 17 20 21 25 28 28 31 31 34 34 39 46 50 50 52 61 61 79 94 115 115 139
nan nan nan nan nan nan 0 nan nan nan nan nan nan nan nan nan nan nan nan nan nan nan nan nan nan nan nan nan nan nan nan nan nan nan 1 3 3 3 2 2 2 2 5 5 5 3 2 2 2 3 3 2 2 2 2 2 2 4 5 6 6 8 9 13 13 16 20 25 31 31 34 36 41 41 48 52 56 56 63 72 72 82 96 114 114 132
nan nan nan nan nan nan nan nan nan nan nan nan nan nan nan nan nan nan nan nan nan nan nan nan nan nan nan nan nan nan nan nan nan nan nan 0 0 0 nan nan nan nan nan 0 0 0 nan 0 0 0 0 nan 0 0 0 0 0 1 2 3 3 5 8 12 12 16 20 27 34 34 35 44 48 48 55 58 62 62 72 75 75 80 93 106 106 120
nan nan 0 0 0 nan nan nan nan nan nan nan nan nan nan nan nan nan nan nan nan nan nan nan nan nan nan nan nan nan nan nan nan nan nan nan nan nan nan nan nan nan nan nan nan nan nan nan nan nan nan nan nan nan nan nan nan 0 1 2 2 5 10 15 15 19 24 32 35 35 39 49 54 54 57 59 67 67 70 76 76 82 89 98 98 110
nan 0 0 nan nan nan nan nan nan nan nan nan nan nan nan nan nan nan nan nan nan nan nan nan nan nan nan nan nan nan nan nan nan nan nan nan nan nan nan nan nan nan nan nan nan nan nan nan nan nan nan nan nan nan nan nan nan 0 1 3 3 6 12 17 17 22 27 30 33 33 39 48 51 51 54 58 65 65 69 77 77 79 88 95 95 104
0 0 0 nan nan nan nan nan nan nan nan nan nan nan nan nan nan nan nan nan nan nan nan nan nan nan nan nan nan nan 0 1 0 0 nan nan 0 0 nan nan nan nan nan nan nan nan nan nan nan nan nan nan nan nan nan nan nan 0 1 5 5 10 15 19 19 24 29 30 33 33 38 44 48 48 51 59 64 64 71 76 76 81 90 98 98 106
0 1 nan nan nan nan nan nan nan nan nan nan nan nan nan nan nan nan nan 2 2 4 4 2 2 0 nan nan nan nan 0 2 1 1 nan nan nan nan nan nan nan nan nan nan nan nan nan nan nan nan nan nan nan nan nan nan nan 1 3 7 7 12 16 18 18 24 27 27 29 29 34 38 44 44 49 54 59 59 69 76 76 81 90 99 99 108
2 1 0 nan nan nan nan nan nan nan nan nan nan nan nan 0 3 3 6 8 8 7 6 4 4 2 0 nan nan nan 0 1 1 1 nan nan nan nan nan nan nan nan nan nan nan nan nan nan nan nan nan nan nan nan nan 0 0 2 5 8 8 11 14 17 17 20 26 26 28 28 30 34 39 39 45 48 56 56 63 74 74 82 89 99 99 105
2 1 0 nan nan nan nan nan nan nan 0 nan 0 0 4 10 13 13 12 9 9 7 6 6 6 3 2 nan nan nan nan 0 0 0 nan nan nan nan nan nan nan nan nan nan nan nan nan nan nan nan nan nan nan nan 0 1 1 3 5 8 8 9 12 14 14 17 21 26 28 28 29 31 37 37 43 47 53 53 63 70 70 80 90 94 94 101
2 1 0 nan nan nan nan nan nan nan nan 0 4 4 10 15 14 14 8 7 7 6 7 8 8 7 2 1 nan nan nan 0 0 0 nan nan nan nan nan nan nan nan nan nan nan nan nan nan nan nan nan nan nan nan 0 1 1 2 4 6 6 7 9 12 12 16 20 25 27 27 30 32 36 36 41 45 52 52 62 68 68 71 79 87 87 95
2 0 nan nan nan nan nan nan nan nan 2 11 17 17 16 12 10 10 8 10 10 11 13 12 12 7 1 nan nan nan nan 0 1 1 0 nan nan nan nan nan nan nan nan nan nan nan nan nan nan nan nan nan 0 0 0 0 0 1 2 3 3 5 7 10 10 14 19 25 27 27 29 31 36 36 39 45 49 49 56 65 65 68 74 80 80 90
0 nan nan nan nan nan nan 0 3 3 14 24 19 19 14 10 8 8 10 15 15 15 13 9 9 3 0 nan nan nan nan 0 2 2 2 nan nan nan nan nan nan nan nan nan nan nan nan nan nan nan nan nan nan nan nan 0 0 0 1 3 3 4 6 9 9 13 17 22 27 27 28 30 34 34 38 41 44 44 53 59 59 66 69 77 77 86
0 nan nan nan nan 0 4 7 15 15 17 24 16 16 10 13 15 15 15 18 18 14 10 5 5 0 nan nan nan nan 0 2 2 2 3 0 nan nan nan nan nan nan nan nan nan nan nan nan nan nan nan nan nan nan nan nan nan 0 1 2 2 4 5 8 8 12 16 21 25 25 28 28 33 33 38 39 44 44 48 58 58 63 69 70 70 80
1 0 0 1 1 5 10 13 16 16 16 21 21 21 20 33 29 29 22 11 11 7 4 2 2 1 0 nan nan nan 0 2 5 5 4 0 nan nan nan nan nan nan nan nan nan nan nan nan nan nan nan nan nan nan nan nan nan 0 1 2 2 4 6 8 8 11 15 19 23 23 26 29 32 32 35 40 42 42 47 52 52 58 61 64 64 71
4 2 4 8 8 19 18 11 15 15 17 20 25 25 35 34 19 19 9 6 6 5 4 3 3 2 1 0 nan nan nan 0 3 3 2 0 nan nan nan nan nan nan nan nan nan nan nan nan nan nan nan nan nan nan nan 0 0 1 1 3 3 5 6 8 8 10 13 17 21 21 26 28 29 29 35 38 39 39 42 47 47 51 54 57 57 60
4 5 7 7 7 23 17 14 23 23 21 22 21 21 20 15 12 12 7 4 4 5 4 3 3 3 0 nan nan nan nan nan 1 1 1 0 nan nan nan nan nan nan nan nan nan nan nan nan nan nan nan nan nan nan nan 0 0 1 2 3 3 4 6 8 8 9 12 15 19 19 23 27 28 28 30 32 35 35 40 42 42 45 48 52 52 58
4 8 10 14 14 23 26 31 28 28 23 16 10 10 7 7 6 6 5 3 3 3 4 3 3 2 0 nan nan nan nan nan 0 0 0 0 nan nan nan nan nan nan nan nan nan nan nan nan nan nan nan nan nan nan nan 0 0 1 2 3 3 4 5 7 7 9 11 14 16 16 20 24 27 27 29 30 34 34 37 41 41 42 46 49 49 55
3 9 16 18 18 18 17 18 19 19 23 20 13 13 8 7 5 5 3 2 2 3 4 3 3 1 nan nan nan nan nan nan nan nan 0 nan nan nan nan nan nan nan nan nan nan nan nan nan nan nan nan nan nan nan nan 0 0 1 2 2 2 3 4 5 5 8 10 12 15 15 18 22 24 24 27 29 32 32 37 39 39 41 45 48 48 52
nan 2 3 4 4 5 7 10 13 13 14 16 21 21 12 4 2 2 1 0 0 2 2 1 1 0 nan nan nan nan nan nan nan nan 0 0 0 0 nan nan nan 0 0 0 0 0 0 nan nan nan nan nan nan nan nan 0 0 0 1 1 1 2 3 4 4 6 8 10 12 12 16 19 22 22 26 28 32 32 36 39 39 40 44 35 35 18
nan nan nan 0 0 1 3 4 4 4 5 5 6 6 5 1 1 1 0 0 0 2 2 1 1 0 nan nan nan nan nan nan nan nan 0 1 0 0 nan nan nan 0 0 1 1 1 nan nan nan nan nan nan nan nan nan nan nan nan 0 1 1 1 2 4 4 5 6 9 12 12 14 16 20 20 22 27 30 30 34 38 38 40 34 23 23 15
0 nan nan nan nan 0 0 nan nan nan 0 1 2 2 3 2 2 2 1 2 2 2 1 1 1 1 0 0 nan nan nan nan nan nan 0 nan nan nan nan 0 0 1 0 2 2 1 nan nan nan nan nan nan nan nan nan nan nan nan nan 0 0 0 1 2 2 3 5 8 11 11 13 16 17 17 19 21 25 25 30 33 33 31 17 12 12 10
nan nan nan nan nan nan nan nan nan nan nan 1 2 2 3 2 1 1 1 2 2 1 1 0 0 0 1 1 nan nan nan nan nan nan 0 0 nan nan 0 0 0 1 2 1 1 0 nan nan nan nan nan nan nan nan nan nan nan nan nan nan nan nan 0 1 1 2 5 7 9 9 12 13 14 14 16 17 21 21 24 30 30 27 11 10 10 9
nan nan nan nan nan nan nan nan nan nan nan nan nan nan nan nan nan nan 0 1 1 2 2 2 2 2 2 1 0 0 nan nan nan nan 1 0 2 2 1 1 1 2 2 5 5 2 nan 0 0 nan nan nan nan nan nan nan nan nan nan nan nan nan nan 0 0 1 1 4 6 6 8 7 8 8 9 11 12 12 16 18 18 23 14 8 8 9
nan nan nan nan nan nan nan nan nan nan nan nan nan nan nan nan 0 0 0 1 1 3 3 4 4 2 2 2 0 0 nan nan nan nan 3 1 3 3 2 1 1 0 3 4 4 3 0 0 0 1 nan nan nan nan nan nan nan nan nan nan nan nan nan 0 0 0 0 1 1 1 5 4 6 6 6 9 10 10 12 17 17 22 23 7 7 11
nan nan nan nan nan nan nan nan nan nan nan nan nan nan nan nan nan nan 0 1 1 3 3 3 3 2 1 0 0 0 nan nan 0 0 4 1 1 1 3 3 3 2 1 2 2 4 1 nan nan 0 nan nan nan nan nan nan nan nan nan nan nan nan nan nan nan nan nan 0 nan nan 0 0 5 5 3 5 7 7 10 15 15 20 29 19 19 14
nan nan nan nan nan nan nan nan nan nan nan nan nan nan nan nan nan nan 1 1 1 1 2 3 3 3 3 1 0 0 nan nan 0 0 5 3 1 1 2 2 2 2 2 2 2 1 0 1 1 1 1 0 nan nan nan nan nan nan nan nan nan nan nan nan nan 0 nan nan nan nan nan nan nan nan 0 3 6 6 11 17 17 22 27 36 36 29
nan nan nan nan nan nan nan nan nan nan nan nan nan nan nan nan 0 0 0 1 1 2 4 4 4 3 3 1 0 0 0 nan 1 1 5 4 2 2 1 3 3 2 2 2 2 0 0 1 1 2 3 0 nan nan nan nan nan nan nan nan nan nan 0 1 1 1 0 nan nan nan nan nan 0 0 1 7 11 11 15 17 17 22 24 33 33 38
nan nan nan nan nan nan nan nan nan nan nan nan nan nan nan 1 2 2 2 5 5 5 4 6 6 5 7 3 2 2 1 1 2 2 5 5 1 1 1 3 3 2 0 1 1 0 0 1 1 2 1 0 nan nan nan nan nan nan nan nan nan nan nan 0 0 1 1 1 1 1 1 1 2 2 4 10 11 11 16 17 17 18 19 24 24 28
nan nan nan nan nan nan nan nan nan nan nan nan 0 0 0 2 5 5 4 6 6 9 5 3 3 4 8 10 8 8 5 4 5 5 5 5 2 2 0 2 2 4 2 0 0 1 0 0 0 1 0 nan 1 1 1 0 0 nan nan 0 0 0 0 0 0 1 2 3 4 4 4 3 3 3 4 5 4 4 4 5 5 13 15 17 17 23
nan nan nan nan nan nan nan nan nan nan nan nan 0 0 1 2 5 5 5 4 4 5 4 2 2 2 2 6 13 13 13 6 3 3 3 5 3 3 0 1 1 2 2 1 1 1 0 0 0 0 0 0 0 0 0 0 0 0 0 1 1 0 0 0 0 2 3 3 5 5 3 2 2 2 3 2 3 3 3 4 4 8 9 8 8 15
nan nan nan nan nan nan nan nan nan nan nan 0 1 1 1 1 3 3 5 2 2 1 2 3 3 2 2 5 6 6 8 4 6 6 3 2 3 3 1 0 0 3 2 2 2 0 0 0 0 0 0 0 0 0 0 1 1 0 3 1 1 0 nan 0 0 1 1 2 3 3 2 2 3 3 3 4 4 4 4 3 3 5 9 7 7 7
nan nan nan nan nan nan nan nan 0 0 0 1 0 0 0 1 1 1 1 1 1 1 1 2 2 2 2 3 3 3 4 5 7 7 3 nan 4 4 4 1 1 1 1 0 0 0 0 nan nan 0 nan 0 1 1 1 1 1 4 6 2 2 1 0 2 2 1 1 2 3 3 5 5 5 5 4 5 4 4 5 4 4 5 8 6 6 4
nan nan nan nan nan nan nan 0 1 1 2 1 0 0 0 1 0 0 0 1 1 1 2 2 2 2 2 1 1 1 3 4 4 4 3 nan 1 1 5 3 3 1 0 0 0 0 1 0 0 1 0 nan 0 0 1 2 2 3 5 1 1 1 2 3 3 1 1 2 3 3 7 4 5 5 5 4 3 3 7 5 5 12 11 5 5 3
nan nan nan nan nan nan 0 1 1 1 1 0 0 0 0 1 1 1 1 1 1 1 3 3 3 2 1 1 0 0 2 4 5 5 6 4 3 3 4 4 4 1 0 0 0 1 1 2 2 0 0 nan nan nan 1 2 2 2 2 3 3 2 1 0 0 0 1 3 2 2 2 2 2 2 3 4 4 4 5 8 8 16 14 4 4 4
nan nan nan nan nan 0 0 0 0 0 0 0 0 0 1 1 3 3 2 1 1 2 3 3 3 3 2 1 0 0 0 2 5 5 5 8 10 10 9 7 7 6 1 0 0 0 0 1 1 nan nan nan nan nan 0 1 1 2 1 3 3 1 0 0 0 0 1 2 2 2 2 3 2 2 3 4 2 2 1 2 2 0 6 3 3 2
nan nan 0 0 0 0 0 0 0 0 0 0 0 0 1 2 3 3 3 2 2 2 2 3 3 3 1 1 0 0 0 0 1 1 3 5 9 9 10 6 6 7 4 2 2 nan nan nan nan 0 0 nan nan nan 0 2 2 3 3 3 3 2 1 1 1 1 1 1 1 1 2 3 2 2 1 2 1 1 0 0 0 0 0 0 0 0
0 0 0 0 0 0 1 1 0 0 0 1 1 1 2 2 2 2 3 2 2 2 2 5 5 2 1 1 0 0 0 nan nan nan 0 2 5 5 6 5 5 4 2 2 2 0 0 nan nan nan nan nan nan nan 0 0 0 1 1 3 3 2 1 2 2 1 1 1 1 1 2 3 0 0 0 1 1 1 nan 0 0 0 nan nan nan nan
0 0 0 0 0 1 0 0 0 0 1 1 1 1 2 3 3 3 3 4 4 2 4 5 5 2 2 1 1 1 0 0 nan nan 0 0 2 2 2 3 3 5 1 1 1 1 1 0 0 0 nan nan 0 0 1 0 0 0 1 1 1 1 0 0 0 1 1 0 0 0 2 2 0 0 1 0 0 0 0 0 0 0 0 0 0 nan
0 1 0 0 0 1 1 1 1 1 2 1 1 1 2 3 3 3 3 4 4 4 5 2 2 1 1 1 1 1 1 0 0 0 0 0 1 1 2 1 1 2 2 3 3 4 5 4 4 3 nan nan nan nan 1 1 1 0 0 1 1 1 0 1 1 1 1 1 0 0 1 0 nan nan nan nan nan nan 0 0 0 0 1 0 0 nan
1 1 1 0 0 0 1 1 1 1 1 1 1 1 2 4 9 9 4 3 3 3 1 2 2 1 1 1 1 1 1 1 1 1 0 0 1 1 1 1 1 0 0 2 2 4 5 7 7 7 0 nan 0 0 2 2 2 1 0 0 0 1 0 1 1 1 1 0 nan nan 0 nan nan nan nan nan nan nan 1 1 1 1 1 1 1 0
1 0 1 1 1 0 1 1 2 2 2 2 2 2 1 2 2 2 2 2 2 2 2 1 1 2 1 0 1 1 0 0 0 0 1 1 1 1 2 1 1 1 1 1 1 3 4 5 5 6 11 3 1 1 2 2 2 1 0 0 0 1 0 1 1 1 1 0 1 1 2 1 nan nan nan nan 1 1 2 1 1 1 1 1 1 1
0 0 1 1 1 1 1 1 2 2 2 2 2 2 1 1 1 1 2 2 2 2 2 1 1 1 1 0 1 1 1 0 1 1 1 1 1 1 3 1 1 1 0 0 0 2 3 1 1 1 2 8 5 5 0 2 2 3 5 2 2 1 3 0 0 1 3 2 3 3 5 5 2 2 nan nan 2 2 1 0 0 1 1 1 1 3
CIN
nan nan nan nan nan nan nan nan nan nan nan nan nan nan nan nan nan nan nan nan nan nan nan nan nan nan nan nan nan nan nan nan nan nan -0 -0 -0 -0 -0 -0 -0 -0 -0 -0 -0 -0 -0 -0 -0 -0 -0 -0 -0 -0 -0 -0 -0 -0 -0 -0 -0 -0 -0 -0 -0 -0 -0 -0 -0 -0 -0 -0 -0 -0 -0 -0 -0 -0 -0 -0 -0 -0 -0 -0 -0 -0
nan nan nan nan nan nan nan nan nan nan nan nan nan nan nan nan nan nan nan nan nan nan nan nan nan nan nan nan nan nan nan nan nan nan nan -0 -0 -0 -0 -0 -0 -0 -0 -0 -0 -0 -0 -0 -0 -0 -0 -0 -0 -0 -0 -0 -0 -0 -0 -0 -0 -0 -0 -0 -0 -0 -0 -0 -0 -0 -0 -0 -0 -0 -0 -0 -0 -0 -0 -0 -0 -0 -0 -0 -0 -0
nan nan nan nan nan nan nan nan nan nan nan nan nan nan nan nan nan nan nan nan nan nan nan nan nan nan nan nan nan nan nan nan nan nan nan -0 -0 -0 -0 -0 -0 -0 -0 -0 -0 -0 -0 -0 -0 -0 -0 -0 -0 -0 -0 -0 -0 -0 -0 -0 -0 -0 -0 -0 -0 -0 -0 -0 -0 -0 -0 -0 -0 -0 -0 -0 -0 -0 -0 -0 -0 -0 -0 -0 -0 -0
nan nan nan nan nan nan nan nan nan nan nan nan nan nan nan nan nan nan nan nan nan nan nan nan nan nan nan nan nan nan nan nan nan nan nan -0 -0 -0 -0 -0 -0 -0 -0 -0 -0 -0 -0 -0 -0 -0 -0 -0 -0 -0 -0 -0 -0 -0 -0 -0 -0 -0 -0 -0 -0 -0 -0 -0 -0 -0 -0 -0 -0 -0 -0 -0 -0 -0 -0 -0 -0 -0 -0 -0 -0 -0
nan nan nan nan nan nan nan nan nan nan nan nan nan nan nan nan nan nan nan nan nan nan nan nan nan nan nan nan nan nan nan nan nan nan nan -0 -0 -0 -0 -0 -0 -0 -0 -0 -0 -0 -0 -0 -0 -0 -0 -0 -0 -0 -0 -0 -0 -0 -0 -0 -0 -0 -0 -0 -0 -0 -0 -0 -0 -0 -0 -0 -0 -0 -0 -0 -0 -0 -0 -0 -0 -0 -0 -0 -0 -0
nan nan nan nan nan nan nan nan nan nan nan nan nan nan nan nan nan nan nan nan nan nan nan nan nan nan nan nan nan nan nan nan nan nan nan -0 -0 -0 -0 -0 -0 -0 -0 -0 -0 -0 -0 -0 -0 -0 -0 -0 -0 -0 -0 -0 -0 -0 -0 -0 -0 -0 -0 -0 -0 -0 -0 -0 -0 -0 -0 -0 -0 -0 -0 -0 -0 -0 -0 -0 -0 -0 -0 -0 -0 -0
nan nan nan nan nan nan nan nan nan nan nan nan nan nan nan nan nan nan nan nan nan nan nan nan nan nan nan nan nan nan nan nan nan nan nan nan -0 -0 -0 -0 -0 -0 -0 -0 -0 -0 -0 -0 -0 -0 -0 -0 -0 -0 -0 -0 -0 -0 -0 -0 -0 -0 -0 -0 -0 -0 -0 -0 -0 -0 -0 -0 -0 -0 -0 -0 -0 -0 -0 -0 -0 -0 -0 -0 -0 -0
nan nan nan nan nan nan nan nan nan nan nan nan nan nan nan nan nan nan nan nan nan nan nan nan nan nan nan nan nan nan nan nan nan nan nan nan nan nan -0 -0 -0 -0 -0 -0 -0 -0 -0 -0 -0 -0 -0 -0 -0 -0 -0 -0 -0 -0 -0 -0 -0 -0 -0 -0 -0 -0 -0 -0 -0 -0 -0 -0 -0 -0 -0 -0 -0 -0 -0 -0 -0 -0 -0 -0 -0 -0
nan nan nan nan nan nan nan nan nan nan nan nan nan nan nan nan nan nan nan nan nan nan nan nan nan nan nan nan nan nan nan nan nan nan nan nan nan nan -0 -0 -0 -0 -0 -0 -0 -0 -0 -0 -0 -0 -0 -0 -0 -0 -0 -0 -0 -0 -0 -0 -0 -0 -0 -0 -0 -0 -0 -0 -0 -0 -0 -0 -0 -0 -0 -0 -0 -0 -0 -0 -0 -0 -0 -0 -0 -0
nan nan nan nan nan nan nan nan nan nan -0 nan nan nan nan nan nan nan nan nan nan nan nan nan nan nan nan nan nan nan nan nan -0 -0 -0 -0 -0 -0 -0 -0 -0 -0 -0 -0 -0 -0 -0 -0 -0 -0 -0 -0 -0 -0 -0 -0 -0 -0 -0 -0 -0 -0 -0 -0 -0 -0 -0 -0 -0 -0 -0 -0 -0 -0 -0 -0 -0 -0 -0 -0 -0 -0 -0 -0 -0 -0
nan nan nan nan nan nan -0 nan nan nan nan nan nan nan nan nan nan nan nan nan nan nan nan nan nan nan nan nan nan nan nan nan nan nan -0 -0 -0 -0 -0 -0 -0 -0 -0 -0 -0 -0 -0 -0 -0 -0 -0 -0 -0 -0 -0 -0 -0 -0 -0 -0 -0 -0 -0 -0 -0 -0 -0 -0 -0 -0 -0 -0 -0 -0 -0 -0 -0 -0 -0 -0 -0 -0 -0 -0 -0 -0
nan nan nan nan nan nan nan nan nan nan nan nan nan nan nan nan nan nan nan nan nan nan nan nan nan nan nan nan nan nan nan nan nan nan nan -0 -0 -0 nan nan nan nan nan -0 -0 -0 nan -0 -0 -0 -0 nan -0 -0 -0 -0 -0 -0 -0 -0 -0 -0 -0 -0 -0 -0 -0 -0 -0 -0 -0 -0 -0 -0 -0 -0 -0 -0 -0 -0 -0 -0 -0 -0 -0 -0
nan nan -0 -0 -0 nan nan nan nan nan nan nan nan nan nan nan nan nan nan nan nan nan nan nan nan nan nan nan nan nan nan nan nan nan nan nan nan nan nan nan nan nan nan nan nan nan nan nan nan nan nan nan nan nan nan nan nan -0 -0 -0 -0 -0 -0 -0 -0 -0 -0 -0 -0 -0 -0 -0 -0 -0 -0 -0 -0 -0 -0 -0 -0 -0 -0 -0 -0 -0
nan -0 -0 nan nan nan nan nan nan nan nan nan nan nan nan nan nan nan nan nan nan nan nan nan nan nan nan nan nan nan nan nan nan nan nan nan nan nan nan nan nan nan nan nan nan nan nan nan nan nan nan nan nan nan nan nan nan -0 -0 -0 -0 -0 -0 -0 -0 -0 -0 -0 -0 -0 -0 -0 -0 -0 -0 -0 -0 -0 -0 -0 -0 -0 -0 -0 -0 -0
-0 -0 -0 nan nan nan nan nan nan nan nan nan nan nan nan nan nan nan nan nan nan nan nan nan nan nan nan nan nan nan -0 -0 -0 -0 nan nan -0 -0 nan nan nan nan nan nan nan nan nan nan nan nan nan nan nan nan nan nan nan -0 -0 -0 -0 -0 -0 -0 -0 -0 -0 -0 -0 -0 -0 -0 -0 -0 -0 -0 -0 -0 -0 -0 -0 -0 -0 -0 -0 -0
-0 -0 nan nan nan nan nan nan nan nan nan nan nan nan nan nan nan nan nan -0 -0 -0 -0 -0 -0 -0 nan nan nan nan -0 -0 -0 -0 nan nan nan nan nan nan nan nan nan nan nan nan nan nan nan nan nan nan nan nan nan nan nan -0 -0 -0 -0 -0 -0 -0 -0 -0 -0 -0 -0 -0 -0 -0 -0 -0 -0 -0 -0 -0 -0 -0 -0 -0 -0 -0 -0 -0
-0 -0 -0 nan nan nan nan nan nan nan nan nan nan nan nan -0 -0 -0 -0 -0 -0 -0 -0 -0 -0 -0 -0 nan nan nan -0 -0 -0 -0 nan nan nan nan nan nan nan nan nan nan nan nan nan nan nan nan nan nan nan nan nan -0 -0 -0 -0 -0 -0 -0 -0 -0 -0 -0 -0 -0 -0 -0 -0 -0 -0 -0 -0 -0 -0 -0 -0 -0 -0 -0 -0 -0 -0 -0
-0 -0 -0 nan nan nan nan nan nan nan -0 nan -0 -0 -0 -0 -0 -0 -0 -0 -0 -0 -0 -0 -0 -0 -0 nan nan nan nan -0 -0 -0 nan nan nan nan nan nan nan nan nan nan nan nan nan nan nan nan nan nan nan nan -0 -0 -0 -0 -0 -0 -0 -0 -0 -0 -0 -0 -0 -0 -0 -0 -0 -0 -0 -0 -0 -0 -0 -0 -0 -0 -0 -0 -0 -0 -0 -0
-0 -0 -0 nan nan nan nan nan nan nan nan -0 -0 -0 -0 -0 -0 -0 -0 -0 -0 -0 -0 -0 -0 -0 -0 -0 nan nan nan -0 -0 -0 nan nan nan nan nan nan nan nan nan nan nan nan nan nan nan nan nan nan nan nan -0 -0 -0 -0 -0 -0 -0 -0 -0 -0 -0 -0 -0 -0 -0 -0 -0 -0 -0 -0 -0 -0 -0 -0 -0 -0 -0 -0 -0 -0 -0 -0
-0 -0 nan nan nan nan nan nan nan nan -0 -0 -0 -0 -0 -0 -0 -0 -0 -0 -0 -0 -0 -0 -0 -0 -0 nan nan nan nan -0 -0 -0 -0 nan nan nan nan nan nan nan nan nan nan nan nan nan nan nan nan nan -0 -0 -0 -0 -0 -0 -0 -0 -0 -0 -0 -0 -0 -0 -0 -0 -0 -0 -0 -0 -0 -0 -0 -0 -0 -0 -0 -0 -0 -0 -0 -0 -0 -0
-0 nan nan nan nan nan nan -0 -0 -0 -0 -0 -0 -0 -0 -0 -0 -0 -0 -0 -0 -0 -0 -0 -0 -0 -0 nan nan nan nan -0 -0 -0 -0 nan nan nan nan nan nan nan nan nan nan nan nan nan nan nan nan nan nan nan nan -0 -0 -0 -0 -0 -0 -0 -0 -0 -0 -0 -0 -0 -0 -0 -0 -0 -0 -0 -0 -0 -0 -0 -0 -0 -0 -0 -0 -0 -0 -0
-0 nan nan nan nan -0 -0 -0 -0 -0 -0 -0 -0 -0 -0 -0 -0 -0 -0 -0 -0 -0 -0 -0 -0 -0 nan nan nan nan -0 -0 -0 -0 -0 -0 nan nan nan nan nan nan nan nan nan nan nan nan nan nan nan nan nan nan nan nan nan -0 -0 -0 -0 -0 -0 -0 -0 -0 -0 -0 -0 -0 -0 -0 -0 -0 -0 -0 -0 -0 -0 -0 -0 -0 -0 -0 -0 -0
-0 -0 -0 -0 -0 -0 -0 -0 -0 -0 -0 -0 -0 -0 -0 -0 -0 -0 -0 -0 -0 -0 -0 -0 -0 -0 -0 nan nan nan -0 -0 -0 -0 -0 -0 nan nan nan nan nan nan nan nan nan nan nan nan nan nan nan nan nan nan nan nan nan -0 -0 -0 -0 -0 -0 -0 -0 -0 -0 -0 -0 -0 -0 -0 -0 -0 -0 -0 -0 -0 -0 -0 -0 -0 -0 -0 -0 -0
-0 -0 -0 -0 -0 -0 -0 -0 -0 -0 -0 -0 -0 -0 -0 -0 -0 -0 -0 -0 -0 -0 -0 -0 -0 -0 -0 -0 nan nan nan -0 -0 -0 -0 -0 nan nan nan nan nan nan nan nan nan nan nan nan nan nan nan nan nan nan nan -0 -0 -0 -0 -0 -0 -0 -0 -0 -0 -0 -0 -0 -0 -0 -0 -0 -0 -0 -0 -0 -0 -0 -0 -0 -0 -0 -0 -0 -0 -0
-0 -0 -0 -0 -0 -0 -0 -0 -0 -0 -0 -0 -0 -0 -0 -0 -0 -0 -0 -0 -0 -0 -0 -0 -0 -0 -0 nan nan nan nan nan -0 -0 -0 -0 nan nan nan nan nan nan nan nan nan nan nan nan nan nan nan nan nan nan nan -0 -0 -0 -0 -0 -0 -0 -0 -0 -0 -0 -0 -0 -0 -0 -0 -0 -0 -0 -0 -0 -0 -0 -0 -0 -0 -0 -0 -0 -0 -0
-0 -0 -0 -0 -0 -0 -0 -0 -0 -0 -0 -0 -0 -0 -0 -0 -0 -0 -0 -0 -0 -0 -0 -0 -0 -0 -0 nan nan nan nan nan -0 -0 -0 -0 nan nan nan nan nan nan nan nan nan nan nan nan nan nan nan nan nan nan nan -0 -0 -0 -0 -0 -0 -0 -0 -0 -0 -0 -0 -0 -0 -0 -0 -0 -0 -0 -0 -0 -0 -0 -0 -0 -0 -0 -0 -0 -0 -0
-0 -0 -0 -0 -0 -0 -0 -0 -0 -0 -0 -0 -0 -0 -0 -0 -0 -0 -0 -0 -0 -0 -0 -0 -0 -0 nan nan nan nan nan nan nan nan -0 nan nan nan nan nan nan nan nan nan nan nan nan nan nan nan nan nan nan nan nan -0 -0 -0 -0 -0 -0 -0 -0 -0 -0 -0 -0 -0 -0 -0 -0 -0 -0 -0 -0 -0 -0 -0 -0 -0 -0 -0 -0 -0 -0 -0
nan -0 -0 -0 -0 -0 -0 -0 -0 -0 -0 -0 -0 -0 -0 -0 -0 -0 -0 -0 -0 -0 -0 -0 -0 -0 nan nan nan nan nan nan nan nan -0 -0 -0 -0 nan nan nan -0 -0 -0 -0 -0 -0 nan nan nan nan nan nan nan nan -0 -0 -0 -0 -0 -0 -0 -0 -0 -0 -0 -0 -0 -0 -0 -0 -0 -0 -0 -0 -0 -0 -0 -0 -0 -0 -0 -0 -0 -0 -0
nan nan nan -0 -0 -0 -0 -0 -0 -0 -0 -0 -0 -0 -0 -0 -0 -0 -0 -0 -0 -0 -0 -0 -0 -0 nan nan nan nan nan nan nan nan -0 -0 -0 -0 nan nan nan -0 -0 -0 -0 -0 nan nan nan nan nan nan nan nan nan nan nan nan -0 -0 -0 -0 -0 -0 -0 -0 -0 -0 -0 -0 -0 -0 -0 -0 -0 -0 -0 -0 -0 -0 -0 -0 -0 -0 -0 -0
-0 nan nan nan nan -0 -0 nan nan nan -0 -0 -0 -0 -0 -0 -0 -0 -0 -0 -0 -0 -0 -0 -0 -0 -0 -0 nan nan nan nan nan nan -0 nan nan nan nan -0 -0 -0 -0 -0 -0 -0 nan nan nan nan nan nan nan nan nan nan nan nan nan -0 -0 -0 -0 -0 -0 -0 -0 -0 -0 -0 -0 -0 -0 -0 -0 -0 -0 -0 -0 -0 -0 -0 -0 -0 -0 -0
nan nan nan nan nan nan nan nan nan nan nan -0 -0 -0 -0 -0 -0 -0 -0 -0 -0 -0 -0 -0 -0 -0 -0 -0 nan nan nan nan nan nan -0 -0 nan nan -0 -0 -0 -0 -0 -0 -0 -0 nan nan nan nan nan nan nan nan nan nan nan nan nan nan nan nan -0 -0 -0 -0 -0 -0 -0 -0 -0 -0 -0 -0 -0 -0 -0 -0 -0 -0 -0 -0 -0 -0 -0 -0
nan nan nan nan nan nan nan nan nan nan nan nan nan nan nan nan nan nan -0 -0 -0 -0 -0 -0 -0 -0 -0 -0 -0 -0 nan nan nan nan -0 -0 -0 -0 -0 -0 -0 -0 -0 -0 -0 -0 nan -0 -0 nan nan nan nan nan nan nan nan nan nan nan nan nan nan -0 -0 -0 -0 -0 -0 -0 -0 -0 -0 -0 -0 -0 -0 -0 -0 -0 -0 -0 -0 -0 -0 -0
nan nan nan nan nan nan nan nan nan nan nan nan nan nan nan nan -0 -0 -0 -0 -0 -0 -0 -0 -0 -0 -0 -0 -0 -0 nan nan nan nan -0 -0 -0 -0 -0 -0 -0 -0 -0 -0 -0 -0 -0 -0 -0 -0 nan nan nan nan nan nan nan nan nan nan nan nan nan -0 -0 -0 -0 -0 -0 -0 -0 -0 -0 -0 -0 -0 -0 -0 -0 -0 -0 -0 -0 -0 -0 -0
nan nan nan nan nan nan nan nan nan nan nan nan nan nan nan nan nan nan -0 -0 -0 -0 -0 -0 -0 -0 -0 -0 -0 -0 nan nan -0 -0 -0 -0 -0 -0 -0 -0 -0 -0 -0 -0 -0 -0 -0 nan nan -0 nan nan nan nan nan nan nan nan nan nan nan nan nan nan nan nan nan -0 nan nan -0 -0 -0 -0 -0 -0 -0 -0 -0 -0 -0 -0 -0 -0 -0 -0
nan nan nan nan nan nan nan nan nan nan nan nan nan nan nan nan nan nan -0 -0 -0 -0 -0 -0 -0 -0 -0 -0 -0 -0 nan nan -0 -0 -0 -0 -0 -0 -0 -0 -0 -0 -0 -0 -0 -0 -0 -0 -0 -0 -0 -0 nan nan nan nan nan nan nan nan nan nan nan nan nan -0 nan nan nan nan nan nan nan nan -0 -0 -0 -0 -0 -0 -0 -0 -0 -0 -0 -0
nan nan nan nan nan nan nan nan nan nan nan nan nan nan nan nan -0 -0 -0 -0 -0 -0 -0 -0 -0 -0 -0 -0 -0 -0 -0 nan -0 -0 -0 -0 -0 -0 -0 -0 -0 -0 -0 -0 -0 -0 -0 -0 -0 -0 -0 -0 nan nan nan nan nan nan nan nan nan nan -0 -0 -0 -0 -0 nan nan nan nan nan -0 -0 -0 -0 -0 -0 -0 -0 -0 -0 -0 -0 -0 -0
nan nan nan nan nan nan nan nan nan nan nan nan nan nan nan -0 -0 -0 -0 -0 -0 -0 -0 -0 -0 -0 -0 -0 -0 -0 -0 -0 -0 -0 -0 -0 -0 -0 -0 -0 -0 -0 -0 -0 -0 -0 -0 -0 -0 -0 -0 -0 nan nan nan nan nan nan nan nan nan nan nan -0 -0 -0 -0 -0 -0 -0 -0 -0 -0 -0 -0 -0 -0 -0 -0 -0 -0 -0 -0 -0 -0 -0
nan nan nan nan nan nan nan nan nan nan nan nan -0 -0 -0 -0 -0 -0 -0 -0 -0 -0 -0 -0 -0 -0 -0 -0 -0 -0 -0 -0 -0 -0 -0 -1 -0 -0 -0 -0 -0 -0 -0 -0 -0 -0 -0 -0 -0 -0 -0 nan -0 -0 -0 -0 -0 nan nan -0 -0 -0 -0 -0 -0 -0 -0 -0 -0 -0 -0 -0 -0 -0 -0 -0 -0 -0 -0 -0 -0 -0 -0 -0 -0 -0
nan nan nan nan nan nan nan nan nan nan nan nan -0 -0 -0 -0 -0 -0 -0 -0 -0 -0 -0 -0 -0 -0 -3 -3 -0 -0 -0 -1 -6 -6 -6 -3 -0 -0 -0 -0 -0 -0 -0 -0 -0 -0 -0 -0 -0 -0 -0 -0 -0 -0 -0 -0 -0 -0 -0 -0 -0 -0 -0 -0 -0 -0 -0 -0 -0 -0 -0 -0 -0 -0 -0 -0 -0 -0 -0 -0 -0 -0 -0 -0 -0 -0
nan nan nan nan nan nan nan nan nan nan nan -0 -0 -0 -0 -0 -0 -0 -0 -0 -0 -0 -0 -0 -0 -0 -0 -0 -0 -0 -0 -7 -2 -2 -5 -5 -2 -2 -0 -0 -0 -0 -0 -0 -0 -0 -0 -0 -0 -0 -0 -0 -0 -0 -0 -0 -0 -0 -0 -0 -0 -0 nan -0 -0 -0 -0 -0 -0 -0 -0 -0 -0 -0 -0 -0 -0 -0 -0 -0 -0 -0 -0 -0 -0 -0
nan nan nan nan nan nan nan nan -0 -0 -0 -0 -0 -0 -0 -0 -0 -0 -0 -0 -0 -0 -0 -0 -0 -0 -0 -0 -0 -0 -0 -6 -0 -0 -9 nan -2 -2 -0 -0 -0 -0 -0 -0 -0 -0 -0 nan nan -0 nan -0 -0 -0 -0 -0 -0 -0 -0 -0 -0 -0 -0 -0 -0 -0 -0 -0 -0 -0 -0 -0 -0 -0 -0 -0 -0 -0 -0 -0 -0 -0 -0 -0 -0 -0
nan nan nan nan nan nan nan -0 -0 -0 -0 -0 -0 -0 -0 -0 -0 -0 -0 -0 -0 -0 -0 -0 -0 -0 -0 -0 -0 -0 -0 -0 -5 -5 -10 nan -6 -6 -0 -0 -0 -0 -0 -0 -0 -0 -0 -0 -0 -0 -0 nan -0 -0 -0 -0 -0 -0 -0 -0 -0 -0 -0 -0 -0 -0 -0 -0 -0 -0 -0 -0 -0 -0 -0 -0 -0 -0 -0 -0 -0 -0 -0 -0 -0 -0
nan nan nan nan nan nan -0 -0 -0 -0 -0 -0 -0 -0 -0 -0 -0 -0 -0 -0 -0 -0 -0 -0 -0 -0 -0 -0 -0 -0 -0 -0 -0 -0 -0 -12 -9 -9 -0 -0 -0 -0 -0 -0 -0 -0 -0 -0 -0 -0 -0 nan nan nan -0 -0 -0 -0 -0 -0 -0 -0 -0 -0 -0 -0 -0 -0 -0 -0 -0 -0 -0 -0 -0 -0 -0 -0 -0 -0 -0 -0 -0 -0 -0 -0
nan nan nan nan nan -0 -0 -0 -0 -0 -0 -0 -0 -0 -0 -0 -0 -0 -0 -0 -0 -0 -0 -0 -0 -0 -0 -0 -0 -0 -0 -0 -0 -0 -0 -0 -6 -6 -0 -0 -0 -0 -0 -0 -0 -0 -0 -0 -0 nan nan nan nan nan -0 -0 -0 -0 -0 -0 -0 -0 -0 -0 -0 -0 -0 -0 -0 -0 -0 -0 -0 -0 -0 -0 -0 -0 -2 -0 -0 -1 -0 -0 -0 -0
nan nan -0 -0 -0 -0 -0 -0 -0 -0 -0 -0 -0 -0 -0 -0 -0 -0 -0 -0 -0 -0 -0 -0 -0 -0 -0 -0 -0 -0 -0 -0 -0 -0 -0 -0 -0 -0 -0 -0 -0 -0 -0 -0 -0 nan nan nan nan -0 -0 nan nan nan -0 -0 -0 -0 -0 -0 -0 -0 -0 -0 -0 -0 -0 -0 -0 -0 -0 -1 -1 -1 -0 -0 -0 -0 -0 -0 -0 -0 -0 -0 -0 -3
-0 -0 -0 -0 -0 -0 -0 -0 -0 -0 -0 -0 -0 -0 -0 -0 -0 -0 -0 -0 -0 -0 -0 -0 -0 -0 -0 -0 -0 -0 -0 nan nan nan -0 -0 -0 -0 -0 -0 -0 -0 -0 -0 -0 -0 -0 nan nan nan nan nan nan nan -0 -0 -0 -0 -0 -0 -0 -0 -0 -0 -0 -0 -0 -0 -0 -0 -0 -3 -1 -1 -0 -0 -0 -0 nan -0 -0 -1 nan nan nan nan
-0 -0 -0 -0 -0 -0 -0 -0 -0 -0 -0 -0 -0 -0 -0 -0 -0 -0 -0 -0 -0 -0 -0 -0 -0 -0 -0 -0 -0 -0 -0 -0 nan nan -0 -0 -0 -0 -0 -0 -0 -0 -2 -0 -0 -0 -0 -0 -0 -0 nan nan -0 -0 -0 -0 -0 -0 -0 -0 -0 -0 -0 -0 -0 -0 -0 -0 -0 -0 -0 -8 -0 -0 -0 -0 -0 -0 -0 -1 -1 -1 -1 -1 -1 nan
-0 -0 -0 -0 -0 -0 -0 -0 -0 -0 -0 -0 -0 -0 -0 -0 -0 -0 -0 -0 -0 -0 -0 -0 -0 -0 -0 -0 -0 -0 -0 -0 -0 -0 -0 -0 -0 -0 -0 -0 -0 -0 -0 -0 -0 -0 -0 -3 -3 -3 nan nan nan nan -0 -0 -0 -0 -0 -0 -0 -0 -0 -0 -0 -0 -0 -1 -11 -11 -9 -5 nan nan nan nan nan nan -0 -0 -0 -1 -1 -3 -3 nan
-0 -0 -0 -0 -0 -0 -0 -0 -0 -0 -0 -0 -0 -0 -0 -0 -0 -0 -0 -0 -0 -0 -0 -0 -0 -0 -0 -0 -0 -0 -0 -0 -0 -0 -0 -0 -0 -0 -0 -0 -0 -0 -0 -0 -0 -0 -0 -0 -0 -0 -0 nan -0 -0 -0 -0 -0 -0 -0 -0 -0 -0 -0 -0 -0 -0 -0 -9 nan nan -20 nan nan nan nan nan nan nan -0 -0 -0 -0 -0 -0 -0 -1
-0 -0 -0 -0 -0 -0 -0 -0 -0 -0 -0 -0 -0 -0 -0 -0 -0 -0 -0 -0 -0 -0 -0 -0 -0 -0 -0 -0 -0 -0 -0 -0 -0 -0 -0 -0 -0 -0 -0 -0 -0 -0 -0 -0 -0 -0 -0 -0 -0 -0 -0 -0 -0 -0 -0 -0 -0 -0 -0 -0 -0 -0 -0 -0 -0 -0 -0 -6 -25 -25 -23 -10 nan nan nan nan -0 -0 -0 -0 -0 -0 -0 -0 -0 -0
-0 -0 -0 -0 -0 -0 -0 -0 -0 -0 -0 -0 -0 -0 -0 -0 -0 -0 -0 -0 -0 -0 -0 -0 -0 -0 -0 -0 -0 -0 -0 -0 -0 -0 -0 -0 -0 -0 -0 -0 -0 -0 -0 -0 -0 -0 -0 -0 -0 -0 -0 -0 -1 -1 -1 -0 -0 -0 -0 -0 -0 -0 -0 -0 -0 -0 -0 -0 -13 -13 -20 -11 -4 -4 nan nan -0 -0 -1 -1 -1 -0 -0 -0 -0 -0
Wind_Speed
2 2 2 3 3 3 3 4 4 4 4 4 4 4 5 5 6 6 7 7 8 8 7 7 8 8 9 10 11 12 13 14 15 15 16 17 17 17 18 18 18 19 19 19 19 19 19 20 20 20 20 20 20 20 20 20 20 21 21 21 21 21 22 22 22 22 22 22 22 22 22 22 22 23 23 23 23 23 24 24 24 24 24 24 25 25
3 3 3 4 4 3 3 4 4 4 4 4 5 5 5 6 6 6 6 7 7 7 7 7 8 8 9 10 11 12 13 14 15 16 16 17 17 18 18 19 19 19 19 19 19 19 19 19 19 19 19 19 19 20 20 20 20 20 21 21 21 21 21 21 22 22 22 22 22 22 22 23 23 23 23 23 24 24 24 25 25 25 25 25 25 25
2 2 2 3 3 3 3 4 4 4 5 5 5 6 7 7 6 5 5 5 6 6 6 7 7 8 9 9 11 12 13 14 15 16 17 17 18 18 18 19 19 19 19 19 19 18 18 19 19 19 19 19 19 19 20 20 20 20 20 21 21 21 21 21 22 22 22 22 22 22 23 23 23 23 23 24 24 24 25 25 25 25 25 25 26 26
2 2 2 2 2 3 3 3 4 4 4 5 6 7 7 6 6 5 5 5 6 6 6 7 7 7 8 8 9 11 13 15 16 17 17 18 18 18 18 18 18 18 18 18 18 18 18 18 18 18 19 19 19 19 20 20 20 20 21 21 21 21 21 22 22 22 22 22 22 23 23 23 23 23 23 24 24 24 25 25 25 25 25 25 26 26
2 2 2 2 2 3 3 4 4 4 4 5 5 6 6 5 5 5 5 6 6 6 6 6 7 7 7 7 9 11 14 15 16 17 17 18 18 18 18 18 18 18 18 18 18 18 18 18 18 19 19 19 20 20 20 20 21 21 21 21 21 22 22 22 22 22 22 22 23 23 23 23 23 23 23 23 24 24 24 24 24 25 25 25 25 26
2 2 1 1 2 2 3 3 3 4 4 4 4 5 5 5 5 5 5 5 5 6 5 6 6 7 7 8 9 12 14 15 16 17 17 17 17 17 17 17 17 17 17 18 18 18 18 19 19 19 20 20 20 21 21 21 21 21 22 22 22 22 22 22 22 22 22 23 22 22 22 22 22 22 22 23 23 23 23 24 24 24 25 25 25 25
2 2 1 2 2 2 3 3 3 3 3 3 3 4 4 5 5 5 5 5 5 5 5 6 6 7 7 8 10 11 13 14 15 15 15 16 16 16 16 16 17 17 17 18 18 19 19 19 20 20 20 21 21 21 22 22 22 22 22 22 22 22 22 22 22 22 22 22 22 22 22 22 22 22 22 22 22 23 23 23 24 24 24 25 25 25
3 2 2 2 3 3 3 3 3 3 3 3 3 4 4 4 4 5 5 5 5 5 5 5 6 6 7 8 9 10 10 11 11 11 12 13 13 14 15 15 16 17 18 18 19 19 20 20 21 21 21 21 22 22 22 22 22 22 22 22 22 22 22 22 22 22 22 22 22 21 21 21 22 22 22 22 22 22 23 23 23 24 24 25 25 25
3 3 3 3 3 3 3 3 3 3 3 4 4 4 5 5 4 4 4 5 5 5 5 5 6 6 6 7 8 8 9 9 9 9 10 10 11 12 13 14 16 17 18 18 19 20 20 21 21 21 22 22 22 22 22 22 22 22 22 22 22 21 21 21 21 21 21 21 21 21 21 21 21 22 22 22 22 22 23 23 23 24 24 25 25 26
4 4 4 3 3 3 3 3 3 3 4 4 4 4 4 5 5 4 5 4 4 4 4 5 6 7 7 7 7 8 8 9 10 11 11 11 12 13 13 14 14 15 17 18 19 20 20 21 21 21 22 22 22 22 22 22 22 21 21 21 21 21 20 20 20 20 20 21 21 21 21 21 21 22 22 22 22 23 23 23 23 24 24 25 25 26
3 3 3 3 3 3 3 3 3 4 4 5 5 4 4 4 4 5 6 5 5 5 4 5 6 6 7 7 7 7 8 8 8 9 10 12 13 13 14 14 14 14 16 17 18 19 20 20 20 21 21 21 21 21 21 21 20 20 20 20 20 20 20 20 20 20 20 20 21 21 21 21 22 22 22 23 23 23 23 23 24 24 24 25 25 25
3 3 3 3 3 3 3 3 3 3 4 4 4 4 3 3 3 4 6 6 6 6 6 5 5 6 7 7 7 7 7 7 7 7 7 8 9 10 10 10 11 12 13 14 15 16 18 19 19 19 19 20 20 20 20 19 19 19 19 19 19 19 20 20 20 20 20 21 21 21 22 22 22 22 23 23 23 23 23 24 24 24 24 24 25 25
3 2 2 3 3 3 3 3 3 3 3 3 3 4 4 3 3 4 4 5 6 6 6 6 6 6 7 7 7 6 6 7 7 6 6 6 7 7 7 7 8 8 9 10 11 12 14 16 17 17 18 18 18 19 19 18 18 18 19 19 19 19 20 20 20 21 21 21 22 22 22 22 23 23 23 23 24 24 24 24 24 24 24 24 25 25
3 3 3 3 3 3 3 3 3 3 3 3 3 4 4 4 4 4 4 5 5 6 6 7 7 7 6 6 7 6 6 6 6 6 6 6 6 7 7 7 7 8 8 9 9 10 12 13 13 14 16 16 17 17 17 17 17 18 18 19 20 20 20 21 21 22 22 22 22 22 23 23 23 23 23 24 24 24 24 24 24 24 24 24 25 25
3 3 3 4 3 3 3 3 4 4 3 3 3 3 4 4 4 5 5 5 6 6 6 7 7 7 5 5 6 6 6 6 5 6 6 6 7 7 7 8 8 8 8 9 9 9 11 11 10 11 12 14 15 15 16 16 18 19 19 20 21 21 22 22 22 22 23 23 23 23 23 23 23 23 23 24 24 24 24 24 24 24 24 25 25 25
3 3 4 4 4 3 3 3 4 4 4 3 4 4 4 4 4 4 5 6 6 5 6 7 7 6 5 5 5 6 6 5 5 6 7 7 7 7 8 8 8 8 8 9 9 9 9 9 10 10 11 13 15 17 18 18 19 20 21 21 22 22 23 23 23 23 23 23 23 23 23 23 23 23 23 24 24 24 24 24 24 24 25 25 25 25
3 3 4 4 4 4 3 3 3 3 3 3 3 4 4 4 4 4 4 5 5 4 5 5 6 6 4 4 4 5 5 5 5 6 7 8 7 7 7 8 8 9 9 9 9 9 9 9 9 9 10 13 16 18 19 20 21 22 22 23 23 23 23 23 23 23 23 23 23 23 23 23 23 24 24 24 24 24 24 24 24 25 25 25 25 25
3 3 3 4 4 4 4 3 3 3 3 3 3 3 3 4 4 4 4 4 4 5 5 5 5 5 5 4 4 4 6 6 6 6 7 8 8 7 7 8 8 9 9 9 9 9 9 9 9 10 11 16 18 20 21 22 22 23 23 23 23 23 23 23 23 23 23 23 24 24 24 24 24 24 24 24 24 24 24 25 25 25 25 25 25 25
3 3 3 3 3 3 3 3 3 3 3 3 4 4 4 4 4 5 5 5 5 6 6 5 5 5 5 6 6 6 6 6 7 7 8 8 8 7 7 7 8 9 9 9 9 9 9 9 10 13 16 18 20 21 22 22 23 23 23 23 23 24 24 24 24 24 24 24 24 24 24 24 24 24 24 24 24 24 25 25 25 25 25 25 25 25
4 4 3 3 3 3 3 3 3 3 3 3 4 4 5 5 5 5 6 5 5 5 5 6 6 6 6 7 7 7 7 7 7 7 8 8 8 8 7 7 8 9 9 9 8 8 9 9 10 13 16 18 20 21 22 22 23 23 24 24 24 24 24 24 24 24 24 24 24 24 24 24 24 24 24 24 24 24 25 25 25 25 25 25 25 25
5 4 4 3 3 3 3 3 3 3 4 5 5 5 5 5 5 6 5 5 5 5 5 6 6 7 6 7 7 7 7 7 7 6 5 6 7 7 6 7 8 8 9 8 8 8 9 9 9 10 13 16 19 21 22 23 23 24 24 25 25 25 25 25 25 25 24 24 24 24 24 24 24 24 24 24 24 25 25 25 25 25 25 25 25 25
4 4 4 4 4 3 3 4 4 5 5 5 5 5 5 5 5 5 5 5 5 5 6 6 7 7 8 8 8 8 8 7 7 6 5 6 7 7 6 6 7 8 9 8 8 8 9 9 9 10 13 17 20 21 23 23 24 25 25 25 25 25 25 25 25 25 25 25 25 25 25 25 25 25 25 25 25 24 25 25 25 25 25 25 25 25
4 4 4 4 4 4 4 4 5 5 5 5 5 5 4 5 5 6 5 5 6 6 7 7 8 8 8 9 9 8 8 7 6 5 5 6 7 7 5 6 6 7 8 8 8 8 9 9 10 11 13 18 20 22 23 24 24 25 25 25 25 25 25 25 25 25 25 25 25 25 25 25 25 25 25 25 25 25 25 25 25 25 25 25 25 26
4 4 4 3 3 3 3 4 4 5 4 4 4 4 4 5 5 6 6 6 6 7 7 7 8 8 9 9 8 8 7 6 5 5 4 6 6 6 5 6 7 8 8 8 8 8 9 9 10 10 11 16 19 21 23 24 24 24 24 25 25 25 25 25 25 25 25 25 25 25 25 25 25 25 25 25 25 25 25 25 25 25 25 25 25 26
4 4 4 4 4 4 4 5 5 5 5 5 5 5 5 6 6 7 7 7 7 7 7 7 8 8 8 8 7 6 5 5 5 4 4 5 6 7 6 6 7 8 8 8 8 8 9 10 10 10 10 14 17 20 22 23 23 24 24 24 24 24 25 25 25 25 25 25 25 25 25 25 25 25 25 25 25 25 25 25 25 25 25 25 25 25
6 6 6 7 7 8 9 9 9 9 9 8 7 6 6 6 6 7 7 7 6 6 7 7 7 7 6 6 5 5 4 4 4 4 4 4 5 6 6 5 6 7 8 8 8 8 9 10 10 10 10 12 15 18 20 21 22 23 23 23 24 24 24 24 25 25 25 25 25 25 25 25 25 25 25 25 25 25 25 25 25 25 25 25 25 25
7 8 9 9 10 10 11 11 12 12 13 12 11 9 7 6 6 7 7 7 6 6 6 6 7 7 6 6 5 5 4 4 4 4 5 5 5 6 6 5 6 7 8 8 8 8 10 11 11 11 11 11 12 14 17 19 21 22 22 23 23 24 24 24 24 25 25 25 25 25 25 25 25 25 25 25 25 25 25 25 24 24 24 23 22 20
6 6 7 8 9 10 10 11 12 13 13 13 14 13 10 7 7 7 7 6 5 5 6 6 6 6 6 6 5 5 5 4 4 5 5 4 5 5 5 6 6 7 7 7 7 9 10 11 11 11 11 10 10 11 14 17 19 20 21 22 23 23 23 24 24 24 24 24 25 25 25 25 25 25 25 25 25 25 25 25 24 24 22 19 15 13
4 5 6 7 8 9 10 11 11 12 12 13 13 11 9 7 6 6 6 5 5 5 6 6 6 6 6 6 6 6 6 5 5 5 4 4 4 5 5 6 6 6 6 6 6 7 8 9 9 9 9 10 10 10 11 13 15 16 18 20 21 22 22 22 23 23 23 24 24 24 24 24 24 24 24 24 24 24 24 25 24 21 17 14 12 10
4 5 6 7 8 8 8 9 9 10 10 11 11 10 8 6 6 6 5 5 5 5 6 6 6 6 5 5 6 5 5 4 4 3 3 3 4 5 5 6 6 6 5 5 5 5 6 6 7 8 8 10 10 9 9 10 11 12 13 15 17 18 19 20 21 22 22 23 23 24 24 24 24 24 24 24 24 24 24 24 22 18 12 11 10 10
5 6 6 6 6 6 6 6 6 7 8 8 8 7 6 6 5 5 5 5 5 5 6 6 6 6 5 5 5 4 4 3 3 2 2 3 4 4 6 6 6 6 5 4 4 5 6 5 5 6 8 9 10 10 10 10 10 10 10 11 12 13 16 18 19 20 20 21 22 23 23 23 23 23 23 23 23 23 24 24 21 17 11 10 10 9
6 6 5 5 5 5 5 5 5 5 5 5 5 5 5 5 5 5 5 5 5 5 5 6 6 6 6 5 5 5 4 4 4 4 4 4 4 5 5 6 6 6 5 5 5 5 5 5 5 6 7 9 9 10 10 10 10 10 10 10 10 11 14 15 16 17 17 18 20 20 21 22 22 22 22 23 23 23 23 23 21 17 12 10 10 10
6 5 5 5 5 5 4 4 4 4 4 4 4 4 4 4 5 5 5 5 5 5 5 6 6 6 6 7 7 7 6 6 6 6 6 5 4 4 5 6 6 6 6 6 6 6 6 6 6 7 8 8 9 9 10 10 10 10 10 10 10 10 12 12 13 13 13 14 16 17 18 19 20 20 21 21 22 22 22 22 21 18 14 11 9 9
6 6 6 5 5 5 4 4 4 4 4 4 4 4 4 4 4 5 5 5 5 5 6 6 6 6 6 7 7 7 7 7 7 7 6 5 4 4 5 6 7 7 6 6 6 6 6 7 8 7 7 8 8 9 9 10 10 10 9 9 9 9 10 10 10 10 11 12 12 12 13 14 16 17 18 19 19 19 20 20 20 20 18 13 11 10
5 6 5 5 5 4 4 4 4 4 4 4 4 4 4 4 4 4 5 5 5 5 6 6 6 7 7 7 7 8 8 7 7 7 7 5 5 5 5 6 6 6 6 6 6 6 6 8 9 9 8 8 8 8 9 9 9 9 9 9 9 9 9 9 10 10 11 11 11 11 11 11 11 12 14 15 16 18 19 20 20 21 21 19 16 13
5 5 5 4 4 4 4 4 4 4 4 4 4 4 4 4 4 5 5 5 5 6 6 7 7 7 7 8 8 9 9 8 8 8 8 6 6 5 5 6 6 7 7 7 7 7 7 8 9 10 10 10 9 8 8 8 9 9 9 9 9 10 10 10 10 10 10 10 11 10 10 10 10 11 12 14 17 18 20 20 21 21 22 21 20 18
5 5 4 4 4 4 4 4 4 4 4 4 4 4 4 4 5 5 5 5 6 6 7 8 8 9 10 9 10 10 10 9 9 9 10 8 7 6 6 6 7 8 7 8 8 8 8 8 9 10 10 9 8 8 8 8 9 9 9 10 10 10 10 10 10 10 10 11 11 11 11 11 11 11 12 15 16 18 19 20 20 20 21 21 21 21
5 4 4 4 4 3 4 4 4 4 4 4 4 4 5 5 6 6 6 6 7 8 8 8 8 10 13 13 13 13 13 13 13 13 13 10 9 8 8 8 8 8 8 8 8 8 8 9 9 10 9 9 9 10 10 10 10 10 10 10 10 10 10 10 10 10 10 11 11 12 12 11 11 11 11 12 12 12 13 13 14 15 17 17 19 20
4 4 4 4 4 4 4 4 4 4 4 4 5 5 5 6 7 7 7 7 8 8 9 9 9 9 11 13 15 15 15 15 15 14 13 12 10 9 9 9 9 9 9 8 8 8 8 9 9 9 9 9 10 10 10 10 10 11 11 11 10 10 10 10 10 10 10 10 11 12 12 11 11 10 10 10 10 10 10 10 10 11 12 11 13 15
4 4 4 4 4 4 4 4 4 4 5 5 6 6 6 6 6 6 7 7 7 8 9 10 10 9 10 11 12 13 14 13 13 13 12 12 11 10 9 9 9 9 9 9 9 9 9 10 10 10 10 9 9 10 10 10 11 11 11 10 9 9 10 10 10 10 10 10 11 11 11 10 10 10 10 10 10 10 10 9 9 10 10 9 9 10
4 4 4 4 4 4 5 5 5 5 5 5 6 5 5 5 5 5 6 6 6 7 7 8 8 9 9 10 11 12 12 12 12 12 11 11 11 11 10 10 9 9 9 9 9 9 9 10 11 11 11 10 11 11 11 12 13 13 13 12 11 11 11 12 12 11 11 11 10 11 11 11 11 11 11 11 10 10 10 10 10 10 10 9 9 9
5 5 4 4 4 4 4 5 5 6 6 6 6 5 5 5 5 5 5 6 6 6 6 6 7 8 9 9 9 10 10 11 11 11 11 12 12 12 12 11 10 9 9 9 10 10 10 10 11 11 11 10 10 11 11 12 13 13 12 12 12 13 13 12 11 10 10 10 10 10 11 11 11 11 11 11 11 10 10 11 11 12 11 10 9 9
4 4 5 5 5 5 5 5 5 5 5 5 5 5 5 5 5 6 6 6 6 7 7 7 7 8 9 9 9 9 9 10 11 12 12 11 12 12 12 12 11 10 9 9 10 10 11 11 11 11 11 10 11 11 12 12 12 12 12 12 12 11 8 9 9 9 10 10 10 10 10 10 10 11 11 11 10 10 10 11 12 13 12 11 10 10
4 4 5 5 5 5 5 5 5 5 5 5 5 5 5 6 6 6 6 6 7 7 7 7 7 8 9 9 9 9 8 9 9 10 10 11 11 11 12 13 13 12 11 10 10 10 10 11 11 11 11 10 10 11 12 12 12 12 12 12 12 12 11 10 10 10 11 10 10 10 11 11 11 11 11 11 10 10 10 10 10 11 12 11 11 10
4 5 5 4 4 4 5 5 5 5 5 5 6 6 6 6 6 6 6 7 7 7 7 7 6 7 8 8 9 8 8 8 8 8 8 10 11 12 12 11 11 11 11 11 10 10 9 10 11 11 10 10 10 11 12 12 13 13 13 13 13 13 13 12 12 11 11 11 11 11 11 11 11 11 11 10 10 10 10 10 10 10 10 10 10 10
4 4 4 4 4 5 5 5 5 5 6 6 6 6 6 6 6 6 7 7 7 7 7 7 6 7 8 8 8 8 8 8 8 7 7 8 8 9 9 9 9 9 9 10 10 10 10 11 11 11 10 10 11 12 12 12 12 12 12 13 12 12 12 12 12 12 12 11 11 12 12 12 11 11 11 11 11 11 10 10 10 11 11 10 10 11
4 5 5 5 5 5 5 6 6 6 6 6 6 6 6 6 6 6 7 7 7 7 7 7 7 7 9 9 8 8 9 9 9 8 8 8 8 8 8 8 9 9 9 9 10 11 11 12 12 11 11 11 11 12 12 12 12 12 12 12 12 12 12 12 12 12 12 11 12 12 12 11 11 11 11 11 11 11 10 10 10 11 11 10 10 11
5 5 5 5 5 5 6 6 6 6 6 6 6 6 6 6 7 7 7 7 7 7 7 7 7 8 9 9 9 9 9 10 10 9 9 8 8 8 8 8 8 8 9 9 10 11 12 13 13 13 12 12 12 12 12 12 12 12 12 12 12 12 12 12 12 12 11 12 12 12 11 10 10 10 11 11 11 11 10 10 10 10 10 10 10 10
5 5 5 5 5 6 6 6 6 6 7 7 7 6 6 7 8 8 7 7 7 7 7 7 8 8 9 9 9 9 10 10 10 9 9 9 8 8 8 8 8 8 8 9 10 10 11 13 14 14 13 12 12 13 13 13 12 12 12 11 11 11 12 12 12 12 11 12 12 12 11 10 10 10 10 11 12 12 12 11 11 10 10 10 10 10
5 5 5 5 6 6 6 6 6 6 7 7 7 7 7 7 7 7 7 7 7 7 7 7 8 8 9 9 9 9 10 10 9 9 9 8 8 8 8 8 8 8 8 8 8 9 9 9 11 12 14 14 14 14 13 13 13 12 11 11 10 10 11 11 11 11 11 11 11 11 10 10 9 9 9 10 12 13 13 12 11 10 10 9 10 10
5 5 5 5 6 6 6 6 6 7 7 7 8 8 7 7 7 7 6 6 7 7 7 7 8 8 9 10 10 10 10 10 10 10 9 8 8 8 8 8 8 8 8 8 8 7 7 7 8 9 11 13 15 15 12 12 12 12 11 11 10 10 10 10 11 11 12 11 11 10 10 10 9 9 9 9 10 12 12 12 12 11 10 9 10 10
Wind_Direction
238 231 206 220 238 257 265 267 270 274 276 281 284 287 288 286 285 286 288 287 287 287 288 286 287 288 289 292 295 297 299 301 302 303 303 303 302 302 301 300 299 298 296 295 294 293 292 291 290 289 288 287 287 286 286 285 284 283 283 283 283 283 283 284 284 284 285 285 286 286 288 289 289 290 290 290 290 290 289 288 288 287 286 284 283 282
213 216 210 218 233 254 273 276 275 273 276 280 283 287 289 289 289 289 288 285 285 286 287 288 290 292 293 296 298 300 302 302 303 303 303 303 303 302 301 300 299 298 296 295 294 293 292 291 290 289 288 287 286 286 285 285 284 284 283 283 283 283 283 284 284 285 285 286 287 287 288 289 289 289 289 289 288 287 286 285 284 283 282 282 281 280
215 223 226 224 235 252 272 278 277 275 277 281 284 286 288 288 288 288 288 287 286 287 287 290 292 295 297 298 300 302 303 303 304 304 303 303 303 302 301 300 299 297 296 295 293 292 291 290 290 289 288 288 287 286 286 286 285 285 284 284 284 284 284 284 285 285 286 286 287 287 288 288 287 287 286 286 285 284 283 282 281 281 280 280 279 278
253 257 260 257 258 263 273 280 281 280 279 279 280 281 283 285 286 287 288 289 289 290 290 293 296 298 299 299 301 302 303 303 304 303 303 303 302 301 300 299 298 297 295 294 293 292 291 290 290 289 289 288 288 287 287 287 287 286 286 286 286 286 286 286 286 286 287 287 287 287 287 286 286 285 284 283 282 282 281 280 280 280 279 279 278 278
256 261 272 280 280 280 281 285 284 281 276 275 275 278 280 284 287 289 289 290 291 292 294 296 298 299 299 299 301 302 303 303 303 303 302 302 301 300 299 298 297 296 295 294 293 292 292 291 290 290 289 289 288 288 288 288 288 288 288 288 287 287 287 287 287 287 287 287 286 286 285 285 284 283 282 282 281 281 280 280 279 279 278 278 277 277
274 275 286 287 286 286 287 282 278 275 275 275 277 280 285 287 288 289 289 290 292 293 295 296 298 299 299 299 301 303 303 303 303 302 302 301 299 298 297 296 296 295 294 294 293 293 292 291 291 290 290 289 289 289 289 288 288 288 288 288 288 288 288 288 287 287 286 286 285 285 284 283 283 282 282 281 281 280 280 279 279 278 278 277 277 277
286 289 287 278 274 273 273 268 267 270 278 284 286 286 286 285 285 286 289 293 295 296 296 297 298 299 299 301 302 304 304 304 303 302 301 300 298 297 297 296 295 295 294 293 293 292 292 291 291 290 290 290 289 289 289 289 288 288 288 288 288 288 287 287 286 286 285 285 284 284 283 282 282 281 281 281 280 280 280 279 279 278 278 277 277 276
281 282 273 266 265 264 264 264 269 278 289 292 292 290 287 285 285 287 290 293 295 298 300 301 302 302 303 305 305 306 305 305 304 303 302 301 299 298 297 296 295 294 293 292 292 291 291 290 290 290 290 289 289 288 288 288 288 288 288 288 288 287 287 286 286 285 284 284 283 283 282 282 281 281 280 280 280 279 279 278 278 277 277 277 276 276
269 272 269 264 266 272 276 278 282 287 290 287 286 287 289 290 290 291 291 292 296 300 306 308 308 307 307 308 307 306 304 303 303 303 302 302 300 299 297 296 294 292 291 290 290 289 289 289 289 289 289 288 288 288 287 287 287 287 287 287 287 287 286 286 285 285 284 284 283 283 282 281 281 280 280 279 278 278 277 277 276 276 276 276 276 276
253 258 264 265 268 273 281 283 283 282 280 277 275 277 281 288 293 297 298 299 303 308 311 311 310 310 309 308 306 305 303 301 299 297 297 295 294 294 293 291 290 289 287 288 288 288 288 288 288 288 288 287 287 287 287 287 287 287 287 287 286 286 286 285 285 285 284 284 283 283 282 281 280 280 279 278 278 277 277 276 276 276 276 276 276 276
249 253 260 266 268 268 268 273 276 276 272 271 269 269 269 283 296 305 307 310 312 315 314 312 311 310 310 309 306 304 303 300 297 295 293 291 290 289 288 287 286 286 286 287 287 287 287 288 288 288 288 287 287 287 287 286 286 286 286 286 286 286 285 285 285 285 284 284 283 283 282 281 281 280 279 279 278 278 278 278 277 277 277 277 277 277
256 260 266 270 270 268 266 267 267 267 268 273 277 281 282 299 312 315 313 313 315 315 314 312 310 308 307 306 305 303 300 298 297 296 294 293 291 290 290 290 290 290 290 290 289 289 288 289 289 289 288 287 287 286 286 286 285 285 285 285 285 285 285 285 285 285 285 284 284 283 283 282 282 281 281 280 280 280 280 279 279 278 278 277 277 277
251 253 256 260 264 267 270 272 273 275 278 286 295 302 308 322 325 320 311 308 309 312 313 311 308 304 302 300 299 298 296 296 296 296 296 295 295 296 298 299 298 298 296 294 292 290 290 290 290 289 288 286 286 285 284 284 284 284 285 285 285 286 286 286 286 286 286 286 285 285 284 284 283 283 282 282 282 281 281 280 280 279 278 278 277 277
249 249 253 260 266 271 277 285 290 293 296 302 307 312 317 321 318 312 304 302 305 309 311 307 305 303 300 295 293 292 293 294 294 295 294 295 297 300 302 302 300 298 296 294 292 291 292 292 291 288 286 285 284 284 283 284 284 285 286 286 287 287 287 288 288 288 287 287 286 286 286 285 284 284 283 283 283 282 282 281 280 280 279 278 277 277
261 268 275 279 282 285 289 294 296 297 302 309 314 315 313 311 309 307 304 305 308 310 309 304 301 299 296 294 293 292 291 293 294 295 294 295 297 300 302 301 298 296 295 293 292 291 291 289 287 285 284 283 284 285 286 287 287 287 288 288 288 288 288 289 288 288 288 288 287 286 286 285 285 284 284 283 283 282 282 281 281 280 279 278 278 277
277 280 280 280 282 286 291 294 297 300 305 313 316 315 310 308 308 309 307 307 308 308 305 302 300 298 294 292 292 292 293 295 296 298 298 298 299 301 303 301 298 295 292 290 288 287 287 285 284 284 284 285 286 287 288 288 288 288 288 288 289 289 288 288 288 288 288 287 287 287 286 285 285 284 283 283 283 282 282 281 281 280 280 279 278 278
273 273 273 278 282 287 292 295 298 302 308 313 313 311 308 308 308 306 302 301 301 300 298 299 300 300 298 295 293 296 303 305 304 302 301 298 299 300 303 299 294 291 289 287 287 287 287 285 285 284 284 285 286 287 288 288 288 288 288 288 288 288 288 288 288 288 287 287 287 286 286 285 284 284 283 283 282 282 282 281 281 281 280 280 279 279
261 266 272 279 284 289 294 295 299 303 308 308 307 304 302 301 300 297 293 292 292 292 292 294 295 296 297 299 302 308 315 313 309 305 300 297 296 298 298 293 289 287 286 285 285 285 284 284 283 283 284 286 287 287 287 287 287 287 287 287 288 288 288 288 288 287 287 287 286 286 285 285 284 284 283 283 282 282 282 281 281 280 280 280 279 279
271 276 279 282 286 290 294 298 304 309 312 314 314 312 306 300 295 291 288 286 286 287 290 290 289 288 290 291 297 305 313 312 308 304 299 295 294 294 294 289 286 284 283 282 283 283 283 282 282 282 283 285 285 286 286 286 287 287 287 288 288 288 288 288 288 287 287 286 286 286 285 285 284 284 283 283 282 282 282 281 281 280 280 279 279 278
286 287 288 293 294 295 295 301 308 315 320 322 316 307 298 295 291 287 282 281 281 283 284 284 285 286 288 290 295 302 312 311 306 299 294 291 290 290 291 288 286 283 282 282 283 284 285 284 283 283 283 284 285 285 286 287 287 288 288 289 289 288 288 288 288 287 287 287 286 286 286 285 285 284 284 283 283 282 282 281 281 280 279 278 278 277
290 289 293 300 301 300 300 305 308 311 315 312 303 294 289 288 284 281 280 282 283 283 283 283 285 288 292 293 297 302 308 305 299 293 289 288 287 288 288 286 284 282 282 283 284 285 285 284 284 283 283 284 286 287 287 288 288 289 289 289 289 288 288 288 288 288 287 287 287 287 286 286 286 285 285 284 283 283 282 281 281 280 279 279 278 277
287 290 298 304 304 302 299 296 295 295 294 292 287 284 284 283 283 283 286 289 290 291 290 288 289 291 294 293 294 295 297 292 288 285 285 283 282 282 284 285 285 284 284 285 286 286 285 284 283 283 284 286 287 288 288 289 289 289 288 288 288 288 288 288 288 288 288 288 288 288 287 287 286 286 285 285 284 283 283 282 282 281 281 280 279 278
286 293 301 302 298 293 289 288 287 286 284 280 278 278 280 284 288 293 297 298 296 294 291 289 288 288 287 285 285 284 283 278 276 275 277 278 280 282 289 291 289 286 283 284 286 286 286 285 285 286 287 288 288 288 288 288 288 288 288 288 288 289 289 289 289 289 288 288 288 288 287 287 287 287 286 286 285 285 284 284 283 282 282 281 280 279
290 292 292 287 283 281 282 284 285 285 285 281 277 275 278 284 290 294 296 295 292 289 287 287 286 284 280 279 279 279 277 275 273 271 271 276 281 286 291 289 285 282 282 285 288 291 290 288 287 287 289 288 288 288 288 288 288 288 288 288 289 289 289 289 288 288 288 288 288 288 288 288 288 287 287 287 286 286 285 284 284 283 282 281 280 279
295 289 285 285 284 283 281 282 284 286 288 284 281 281 285 290 292 292 289 285 282 281 281 281 279 278 278 280 281 280 279 276 273 269 267 273 277 280 284 286 286 286 287 289 292 293 292 290 289 289 289 288 287 287 287 288 288 288 288 288 288 288 288 288 288 288 288 288 288 288 288 288 288 288 287 287 286 286 285 284 283 282 282 281 280 279
293 292 293 294 294 292 292 292 292 293 293 292 293 294 296 294 291 286 281 277 274 273 273 273 273 275 280 283 283 282 281 276 270 266 266 273 279 282 286 288 287 287 288 291 293 294 293 291 291 290 288 287 287 287 287 287 288 288 288 288 288 288 287 287 288 288 288 288 288 288 287 287 287 287 286 286 285 285 284 284 283 282 282 281 280 279
289 291 294 296 296 297 297 296 295 294 293 292 291 290 289 286 282 277 273 271 270 271 272 273 276 279 283 283 282 282 285 283 277 272 270 275 279 281 284 286 287 288 290 292 294 295 293 291 290 288 286 285 285 286 287 288 288 288 288 288 288 288 288 287 288 288 287 287 287 287 286 286 286 286 285 285 285 285 284 284 283 283 283 282 281 279
280 285 290 292 292 292 292 292 291 290 289 287 286 284 281 275 270 267 266 269 271 272 270 272 275 279 282 282 284 287 292 289 281 273 269 270 272 275 281 287 291 293 295 295 294 292 289 286 285 284 283 284 286 287 288 289 289 289 289 289 288 288 288 287 287 287 287 287 287 286 286 286 286 285 285 285 285 285 284 284 284 284 283 282 280 278
264 272 277 281 283 285 287 287 287 286 285 284 281 278 272 264 259 258 262 267 269 267 265 266 269 273 279 286 289 291 288 278 269 264 264 267 271 276 285 290 294 296 299 298 295 290 284 280 280 281 284 286 288 289 290 292 292 291 290 289 288 288 287 287 287 287 287 287 286 286 286 286 285 285 285 285 284 284 284 284 284 284 283 281 278 276
273 276 277 279 282 284 285 285 285 283 281 279 276 271 262 255 252 253 258 261 261 260 261 263 267 271 278 286 288 285 277 268 263 264 270 272 274 280 289 292 295 298 302 301 297 291 284 280 280 283 287 290 292 293 294 294 294 292 291 289 288 287 287 287 287 287 287 287 286 286 286 286 285 285 285 284 284 284 284 284 284 284 282 279 276 274
295 293 291 291 291 290 288 286 283 280 277 273 269 263 256 251 249 251 253 253 253 255 259 263 266 269 272 277 280 279 276 277 288 301 301 284 280 284 292 293 293 294 296 295 295 294 294 290 288 290 294 296 296 295 293 292 291 290 289 288 288 287 287 287 287 287 287 287 286 286 286 285 285 285 284 284 284 283 283 283 283 282 280 277 275 273
299 298 297 297 295 292 287 282 278 275 272 268 262 256 251 250 250 251 252 252 252 254 257 261 263 265 264 265 267 270 275 282 293 301 301 288 283 284 288 288 288 288 288 282 282 286 292 295 297 298 299 296 294 291 289 288 288 288 288 288 287 287 288 288 288 288 287 287 287 286 286 286 285 285 284 284 283 282 282 281 281 280 277 275 273 272
298 297 295 293 290 286 280 275 271 268 267 264 261 257 253 251 250 251 252 252 252 253 256 259 262 263 263 263 263 265 269 276 284 289 289 283 281 281 284 284 285 286 287 281 276 274 276 284 291 295 294 291 289 288 288 288 288 288 288 287 287 287 288 289 288 288 288 288 288 288 287 287 286 285 284 283 282 281 280 279 278 277 275 274 272 271
295 293 291 288 284 279 274 270 267 265 263 263 262 260 257 253 251 249 250 250 250 251 254 257 261 263 265 266 266 266 268 271 276 281 284 281 280 282 285 285 285 287 288 284 279 276 273 277 283 288 290 289 288 288 289 289 288 287 285 285 286 287 289 290 290 289 290 290 290 289 288 287 286 284 283 282 280 279 278 278 277 275 273 271 269 268
291 289 286 282 279 276 273 269 267 264 263 262 262 261 261 260 258 257 255 254 253 252 253 254 257 259 262 265 268 269 270 273 279 284 288 284 283 283 284 282 283 285 286 283 282 281 279 279 281 284 288 290 290 288 287 287 287 287 286 286 287 288 290 291 291 291 291 290 288 287 287 286 285 284 282 281 279 279 278 277 276 275 273 271 269 266
287 284 282 280 278 276 275 274 273 272 272 272 270 269 268 267 266 264 262 260 259 257 256 255 255 255 256 259 263 267 271 276 282 285 285 281 279 279 279 278 280 281 281 280 279 279 279 281 282 284 286 287 288 288 287 288 289 290 290 290 290 290 290 290 290 290 289 287 286 285 284 284 283 282 281 280 279 279 278 277 276 275 273 271 269 267
282 281 281 281 281 281 281 282 283 284 284 283 281 279 276 273 270 269 267 266 264 263 262 259 257 255 253 255 257 262 268 273 276 277 276 275 273 272 273 275 276 275 274 275 277 278 279 281 283 283 282 281 283 287 292 295 295 294 293 293 292 291 290 289 288 287 285 283 282 282 282 282 282 281 281 280 280 279 279 277 276 275 274 272 270 269
280 281 283 285 286 288 288 289 288 288 289 288 287 284 282 278 276 273 271 267 264 262 261 260 258 256 254 255 256 259 263 267 269 270 270 269 268 267 268 271 271 270 267 268 271 274 276 278 280 282 281 279 280 284 290 295 295 294 292 293 292 291 289 288 286 283 281 281 281 281 282 282 282 282 282 281 281 280 278 277 276 275 274 273 271 269
280 282 285 287 288 289 288 289 290 292 292 290 289 286 283 280 276 273 269 266 262 260 258 259 260 259 258 257 257 259 260 262 263 263 263 261 259 259 262 265 267 267 266 264 265 266 268 270 272 275 279 282 283 285 287 288 289 291 293 293 290 287 284 285 284 283 282 283 283 283 283 282 281 280 280 279 278 277 276 276 275 274 273 273 272 270
280 282 286 288 288 289 290 292 293 293 291 288 285 282 280 278 275 272 268 266 264 263 263 263 263 264 263 261 260 260 259 258 257 256 255 251 249 249 253 258 262 265 266 263 262 260 262 264 267 270 272 276 281 284 286 285 286 288 291 292 290 287 286 287 287 286 284 283 281 281 280 279 278 277 276 275 274 273 272 272 272 272 272 272 273 274
281 284 287 288 289 290 290 289 288 287 286 285 283 281 279 278 277 276 275 273 272 271 271 269 269 269 268 266 265 264 263 261 259 257 254 248 244 244 247 251 255 260 262 262 261 259 259 262 266 268 270 272 275 278 280 281 283 285 287 286 285 286 288 287 285 283 281 278 276 276 276 277 277 276 275 274 272 270 269 270 270 271 270 268 268 269
282 284 287 289 288 286 284 283 283 283 283 282 281 280 279 281 283 284 285 284 282 280 278 277 278 278 278 276 274 272 271 269 265 261 256 249 244 242 243 246 249 253 257 260 261 260 259 261 264 267 269 272 275 277 278 279 280 281 281 281 283 285 286 282 280 278 279 278 278 278 278 279 279 278 276 275 273 271 269 268 267 267 267 265 263 261
280 283 286 285 284 283 282 282 282 282 282 280 279 279 281 283 286 287 287 286 285 284 283 283 284 286 287 286 284 280 275 269 265 263 260 253 246 242 242 244 246 248 251 256 260 262 261 261 262 264 267 269 271 273 276 279 280 280 278 279 282 285 286 283 283 283 282 281 281 281 280 279 277 277 276 274 273 272 270 267 266 265 263 262 261 259
284 284 282 280 281 282 284 285 286 286 285 284 283 283 284 283 283 283 283 282 283 285 286 287 287 286 285 284 285 285 282 278 274 272 271 268 260 253 249 248 248 248 248 251 256 261 265 264 263 264 265 267 268 270 273 276 278 279 278 278 278 277 276 280 285 286 284 281 278 276 275 275 275 275 275 273 272 270 268 266 264 262 260 259 258 257
281 279 277 279 283 286 288 289 289 289 287 285 284 283 282 281 280 280 280 282 284 286 287 289 288 287 283 285 287 290 291 292 290 286 281 274 268 264 259 256 253 251 248 248 250 254 260 264 267 268 269 268 267 268 270 274 276 277 277 276 275 273 271 275 278 280 279 278 277 275 274 275 276 276 275 273 271 269 267 266 264 263 260 257 255 254
274 276 281 285 288 290 290 290 289 288 285 283 281 281 281 281 280 280 279 281 282 283 283 283 282 282 282 286 290 293 295 294 292 289 285 281 276 272 268 264 260 257 254 251 250 250 252 258 265 270 273 271 268 266 266 269 272 274 275 275 275 274 274 274 274 275 276 276 276 276 276 276 276 275 274 274 273 271 268 266 264 263 261 258 255 253
279 283 287 289 291 291 290 289 289 287 285 284 283 284 284 283 282 281 279 279 279 280 282 281 279 278 279 283 287 290 291 292 292 292 291 289 287 284 280 274 269 264 261 259 257 255 255 256 259 263 268 270 270 269 267 267 268 270 273 274 275 275 275 275 275 275 275 274 274 275 276 276 274 273 273 274 274 273 271 268 265 263 261 258 256 254
287 289 290 291 290 290 289 288 287 287 286 286 287 287 286 285 283 282 281 280 280 280 281 281 279 278 279 280 282 283 285 288 290 291 292 291 290 288 285 282 277 273 269 266 265 263 262 260 259 259 260 263 267 270 271 269 268 268 269 271 272 273 273 274 275 275 275 273 272 271 272 271 271 271 273 274 275 274 273 271 268 264 261 259 257 255
289 289 288 288 287 286 285 286 287 287 287 288 289 288 287 284 283 282 281 281 280 279 279 279 279 280 280 281 282 282 283 283 285 286 288 290 290 289 288 287 285 283 280 277 274 271 269 265 261 257 254 255 259 264 268 269 268 267 267 268 269 270 272 274 275 276 276 274 272 269 266 266 267 268 272 274 275 276 277 275 273 269 264 261 258 256
287 285 285 284 283 282 283 285 286 287 288 289 290 290 288 286 284 281 279 279 278 277 276 277 279 280 282 283 283 283 283 283 283 284 285 287 288 290 290 290 290 290 289 286 282 279 276 272 266 259 253 251 253 257 264 267 268 268 268 267 267 268 271 274 276 277 278 278 277 275 271 269 268 267 268 271 274 276 278 278 276 273 269 265 261 258
285 284 282 281 280 280 282 285 287 288 288 288 289 288 288 286 284 282 279 278 277 277 276 276 277 278 279 281 282 282 282 282 282 282 283 286 288 289 290 290 291 291 290 289 287 286 284 283 279 272 262 255 253 254 261 266 270 272 271 270 270 271 273 275 278 280 281 282 282 281 279 276 273 270 268 269 272 276 278 279 278 277 274 272 268 264